Location: Aalen
(48.8330°N, 10.1000°E)
Time: 17:38:36
(UTC+02:00)

Transit 4A - Pass Details

Date: 03 August 2021
Orbit: 871 x 974 km, 66.8° (Epoch: 16 September)

Event Time Altitude Azimuth Distance (km) Brightness Sun altitude
Rises 08:01:07 0° 325° (NW) 3,472 10.6 18.8°
Reaches altitude 10° 08:03:48 10° 334° (NNW) 2,536 10.0 19.2°
Maximum altitude 08:09:12 37° 41° (NE) 1,347 9.7 20.1°
Drops below altitude 10° 08:14:40 10° 108° (ESE) 2,568 11.7 21.0°
Sets 08:17:23 0° 117° (ESE) 3,521 11.9 21.4°
